Total_Precipitation_Accumulation
0.77 0.63 0.82 0.88 0.86 1.00 1.49 1.58 1.54 0.95 0.63 0.61 0.61 0.68 0.69 0.65 0.63 0.63 0.64 0.67 0.72 0.78 0.85 0.88 0.90 0.96 0.97 0.94 0.95 0.92 0.97 1.07 1.13 1.19 1.28 1.42 1.52 1.60 1.69 1.72 1.74 1.78 1.82 1.86
0.85 0.53 0.63 0.73 0.70 0.75 0.89 0.99 1.04 0.79 0.76 0.68 0.62 0.58 0.57 0.57 0.56 0.61 0.63 0.67 0.68 0.69 0.76 0.80 0.90 0.98 1.04 1.03 1.02 0.98 0.96 1.00 1.08 1.17 1.21 1.28 1.38 1.50 1.60 1.71 1.76 1.78 1.85 1.89
1.12 0.60 0.79 0.96 0.84 0.82 0.85 0.87 0.90 0.96 0.89 0.71 0.64 0.60 0.62 0.60 0.56 0.58 0.59 0.60 0.62 0.65 0.72 0.77 0.85 0.94 1.03 1.07 1.04 1.02 1.01 1.00 1.04 1.12 1.22 1.29 1.33 1.42 1.59 1.71 1.89 1.96 1.99 2.06
1.44 0.94 1.17 0.92 0.68 0.69 0.76 0.81 0.85 0.84 0.75 0.70 0.66 0.66 0.66 0.62 0.57 0.55 0.54 0.55 0.55 0.59 0.62 0.65 0.71 0.81 0.94 0.99 1.02 1.03 1.03 1.07 1.09 1.11 1.23 1.35 1.38 1.45 1.57 1.70 1.86 2.01 2.06 2.11
1.72 1.25 0.81 0.52 0.48 0.65 0.77 0.82 0.79 0.66 0.55 0.53 0.54 0.55 0.58 0.54 0.52 0.56 0.57 0.60 0.59 0.60 0.62 0.61 0.65 0.74 0.86 0.94 0.95 0.98 1.03 1.09 1.14 1.17 1.29 1.40 1.43 1.48 1.56 1.64 1.72 1.80 1.88 1.91
1.79 1.50 0.83 0.54 0.34 0.40 0.63 0.90 0.66 0.58 0.57 0.56 0.57 0.68 0.62 0.51 0.50 0.53 0.52 0.54 0.60 0.62 0.60 0.62 0.67 0.71 0.82 0.93 1.03 1.09 1.13 1.19 1.23 1.31 1.44 1.51 1.51 1.52 1.52 1.54 1.55 1.52 1.54 1.52
1.45 1.38 0.75 0.51 0.32 0.33 0.86 1.03 0.58 0.56 0.60 0.63 0.69 0.73 0.63 0.49 0.46 0.51 0.53 0.53 0.56 0.60 0.62 0.67 0.72 0.73 0.77 0.85 1.05 1.16 1.21 1.24 1.27 1.35 1.43 1.50 1.48 1.44 1.43 1.40 1.39 1.34 1.31 1.29
1.13 1.46 1.03 0.53 0.41 0.76 0.99 0.64 0.56 0.56 0.60 0.63 0.61 0.52 0.46 0.46 0.46 0.45 0.47 0.49 0.55 0.62 0.65 0.66 0.73 0.81 0.81 0.88 0.99 1.06 1.13 1.16 1.18 1.21 1.27 1.37 1.41 1.39 1.34 1.35 1.34 1.31 1.29 1.31
1.01 1.10 0.93 0.72 0.78 0.83 0.71 0.64 0.55 0.56 0.55 0.55 0.53 0.50 0.44 0.42 0.43 0.45 0.48 0.50 0.56 0.66 0.72 0.72 0.74 0.81 0.87 0.86 0.88 0.94 1.02 1.09 1.09 1.06 1.09 1.16 1.24 1.30 1.32 1.33 1.33 1.31 1.30 1.32
0.86 0.82 0.72 0.67 0.60 0.55 0.55 0.60 0.55 0.51 0.51 0.52 0.54 0.50 0.46 0.44 0.44 0.43 0.44 0.49 0.56 0.61 0.67 0.70 0.70 0.74 0.79 0.76 0.76 0.80 0.88 0.96 1.01 1.02 1.02 1.02 1.07 1.17 1.24 1.30 1.31 1.27 1.29 1.33
0.75 0.65 0.55 0.52 0.50 0.51 0.49 0.45 0.42 0.40 0.41 0.46 0.49 0.47 0.46 0.48 0.46 0.47 0.48 0.51 0.56 0.64 0.69 0.71 0.68 0.69 0.71 0.70 0.71 0.76 0.78 0.83 0.87 0.95 1.00 1.04 1.06 1.14 1.25 1.30 1.43 1.50 1.42 1.36
0.83 0.65 0.67 0.64 0.53 0.48 0.46 0.44 0.43 0.41 0.38 0.37 0.41 0.46 0.43 0.45 0.44 0.46 0.52 0.53 0.55 0.58 0.64 0.72 0.71 0.68 0.67 0.67 0.70 0.77 0.81 0.81 0.85 0.93 0.98 1.00 1.03 1.10 1.20 1.25 1.32 1.38 1.43 1.46
0.67 0.53 0.51 0.47 0.39 0.37 0.40 0.41 0.39 0.40 0.42 0.42 0.42 0.42 0.45 0.46 0.45 0.48 0.52 0.52 0.57 0.60 0.61 0.66 0.72 0.72 0.69 0.70 0.73 0.78 0.86 0.88 0.89 0.93 0.99 0.98 0.98 1.02 1.10 1.15 1.18 1.20 1.27 1.34
0.38 0.36 0.36 0.32 0.34 0.32 0.33 0.33 0.32 0.32 0.35 0.40 0.43 0.42 0.44 0.46 0.47 0.51 0.58 0.60 0.60 0.60 0.61 0.63 0.67 0.73 0.73 0.72 0.74 0.79 0.85 0.91 0.94 0.97 1.02 1.02 1.00 1.01 1.03 1.06 1.09 1.11 1.15 1.24
0.25 0.31 0.38 0.33 0.27 0.27 0.28 0.27 0.26 0.28 0.30 0.33 0.33 0.37 0.42 0.48 0.54 0.60 0.64 0.63 0.58 0.56 0.57 0.58 0.62 0.67 0.71 0.75 0.77 0.79 0.83 0.88 0.92 0.98 1.03 1.06 1.05 1.03 1.02 1.00 1.00 1.03 1.05 1.17
0.26 0.24 0.24 0.24 0.25 0.25 0.25 0.28 0.31 0.33 0.33 0.35 0.36 0.40 0.46 0.49 0.51 0.55 0.60 0.64 0.63 0.61 0.59 0.58 0.62 0.66 0.70 0.76 0.79 0.78 0.79 0.90 0.97 1.02 1.02 1.02 1.04 1.06 1.05 1.02 1.00 0.98 0.99 1.09
0.34 0.32 0.30 0.30 0.29 0.29 0.29 0.33 0.38 0.38 0.37 0.40 0.46 0.47 0.47 0.46 0.46 0.48 0.55 0.59 0.61 0.63 0.64 0.67 0.69 0.66 0.68 0.73 0.79 0.81 0.82 0.86 0.94 0.97 0.99 1.01 1.03 1.07 1.07 1.05 1.04 1.02 1.00 1.09
0.37 0.39 0.40 0.42 0.41 0.38 0.35 0.34 0.35 0.36 0.38 0.41 0.43 0.44 0.46 0.48 0.52 0.55 0.57 0.54 0.51 0.50 0.53 0.59 0.64 0.65 0.65 0.70 0.80 0.84 0.85 0.85 0.85 0.90 0.97 1.03 1.09 1.10 1.11 1.08 1.03 1.02 1.01 1.06
0.31 0.31 0.32 0.34 0.37 0.37 0.36 0.35 0.36 0.36 0.37 0.38 0.41 0.44 0.46 0.49 0.52 0.52 0.50 0.49 0.50 0.54 0.54 0.54 0.61 0.60 0.62 0.68 0.80 0.83 0.86 0.87 0.87 0.90 0.98 1.08 1.12 1.10 1.11 1.10 1.06 1.03 1.04 1.05
0.24 0.26 0.28 0.30 0.31 0.33 0.35 0.35 0.35 0.36 0.38 0.39 0.40 0.40 0.41 0.45 0.48 0.50 0.47 0.49 0.58 0.68 0.66 0.65 0.62 0.58 0.61 0.68 0.80 0.82 0.86 0.89 0.92 0.94 0.99 1.04 1.07 1.08 1.08 1.09 1.09 1.07 1.05 1.04
0.25 0.26 0.28 0.31 0.32 0.32 0.34 0.35 0.35 0.36 0.36 0.36 0.39 0.42 0.45 0.47 0.48 0.50 0.50 0.51 0.53 0.58 0.61 0.61 0.58 0.61 0.70 0.80 0.84 0.82 0.85 0.90 0.94 0.97 1.01 1.04 1.05 1.05 1.05 1.06 1.07 1.08 1.06 1.05
0.27 0.29 0.32 0.33 0.34 0.35 0.35 0.35 0.35 0.35 0.34 0.34 0.36 0.37 0.39 0.41 0.42 0.44 0.46 0.54 0.58 0.61 0.59 0.54 0.59 0.74 0.89 0.93 0.84 0.80 0.84 0.88 0.91 0.94 0.99 1.03 1.06 1.08 1.07 1.08 1.10 1.09 1.07 1.07
0.29 0.31 0.32 0.34 0.36 0.38 0.37 0.37 0.37 0.37 0.36 0.37 0.39 0.42 0.43 0.45 0.46 0.50 0.53 0.50 0.53 0.59 0.57 0.57 0.70 0.84 0.89 0.81 0.75 0.77 0.81 0.86 0.89 0.93 0.97 1.02 1.07 1.10 1.11 1.08 1.07 1.07 1.08 1.07
0.31 0.31 0.32 0.33 0.32 0.32 0.33 0.34 0.35 0.37 0.37 0.37 0.39 0.42 0.45 0.45 0.42 0.42 0.49 0.53 0.55 0.57 0.55 0.60 0.70 0.78 0.76 0.68 0.67 0.73 0.79 0.85 0.91 0.94 0.97 0.99 1.01 1.02 1.04 1.04 1.04 1.01 1.00 1.00
0.31 0.31 0.31 0.31 0.33 0.33 0.34 0.33 0.32 0.31 0.32 0.32 0.32 0.34 0.37 0.42 0.48 0.45 0.42 0.44 0.48 0.50 0.49 0.52 0.60 0.64 0.63 0.61 0.65 0.72 0.79 0.88 0.98 1.03 1.02 1.01 0.99 0.99 0.99 1.01 1.02 1.00 0.97 0.95
0.29 0.30 0.31 0.32 0.34 0.34 0.35 0.35 0.35 0.32 0.32 0.32 0.29 0.29 0.30 0.32 0.34 0.36 0.37 0.38 0.39 0.42 0.43 0.46 0.50 0.54 0.56 0.60 0.66 0.72 0.78 0.84 0.89 0.92 0.94 0.96 0.95 0.96 0.96 0.96 0.94 0.94 0.93 0.92
0.26 0.27 0.28 0.28 0.27 0.29 0.33 0.35 0.37 0.36 0.36 0.39 0.38 0.32 0.31 0.31 0.31 0.31 0.33 0.34 0.35 0.36 0.39 0.43 0.46 0.51 0.55 0.59 0.63 0.67 0.71 0.76 0.80 0.84 0.87 0.91 0.93 0.95 0.94 0.94 0.94 0.93 0.91 0.90